Regional Weather Roundup
Issued by NWS Raleigh/Durham, NC

Home | Current Version | Previous Version | Text Only | Print | Product List | Glossary On
Versions: 1 2 3 4 5 6 7 8 9 10 11 12 13 14 15 16 17 18 19 20 21 22 23 24 25 26 27
000
ASUS42 KRAH 211510
RWRRAH
NORTH CAROLINA WEATHER ROUNDUP
NATIONAL WEATHER SERVICE RALEIGH NC
1100 AM EDT MON MAY 21 2018

NOTE: "FAIR" INDICATES FEW OR NO CLOUDS BELOW 12,000 FEET WITH NO
SIGNIFICANT WEATHER AND/OR OBSTRUCTIONS TO VISIBILITY.

NCZ001-053-055-056-065-067-211600-
WESTERN NORTH CAROLINA

CITY           SKY/WX    TMP DP  RH WIND       PRES   REMARKS
ASHEVILLE      CLOUDY    69  63  81 CALM      30.24S
JEFFERSON      FAIR      72  63  72 E3        30.26F
MORGANTON      FAIR      69  64  83 CALM      30.22S
HICKORY        FAIR      71  69  93 N3        30.18S
RUTHERFORDTON  FAIR      69  69 100 S6        30.20R
MOUNT AIRY     NOT AVBL
BOONE          CLOUDY    71  60  67 CALM      30.27S
$$

NCZ021-022-025-041-071-084-088-211600-
CENTRAL NORTH CAROLINA

CITY           SKY/WX    TMP DP  RH WIND       PRES   REMARKS
CHARLOTTE      PTSUNNY   74  70  87 SW3       30.18F
GREENSBORO     CLOUDY    76  66  71 E3        30.17S
WINSTON-SALEM  FAIR      76  66  71 N8        30.19S
RALEIGH-DURHAM CLOUDY    76  69  79 VRB5      30.16S
FORT BRAGG     FAIR      79  68  68 SW5       30.16S
FAYETTEVILLE   FAIR      80  66  62 SW7       30.16F
BURLINGTON     FAIR      76  67  73 CALM      30.16S
LAURINBURG     FAIR      77  69  76 SW6       30.19S
$$

NCZ011-015-027-028-043-044-047-080-103-211600-
NORTHEASTERN NORTH CAROLINA

CITY           SKY/WX    TMP DP  RH WIND       PRES   REMARKS
ROCKY MT-WILSO FAIR      80  70  71 W5        30.15S
GREENVILLE     FAIR      81  70  69 CALM      30.16S
WASHINGTON     PTSUNNY   78  71  79 CALM      30.16S
ELIZABETH CITY CLOUDY    81  74  79 CALM      30.14S
MANTEO         FAIR      78  71  79 W5        30.16R
CAPE HATTERAS  CLOUDY    76  72  87 SW8       30.16S
$$

NCZ078-087-090-091-093-098-101-211600-
SOUTHEASTERN NORTH CAROLINA

CITY           SKY/WX    TMP DP  RH WIND       PRES   REMARKS
LUMBERTON      FAIR      78  69  73 VRB3      30.18S
GOLDSBORO      CLOUDY    81  68  65 SW6       30.16R
KINSTON        PTSUNNY   79  70  73 SW5       30.16F
KENANSVILLE    PTSUNNY   77  70  78 SW7       30.18S
NEW BERN       FAIR      79  72  79 VRB7      30.17S
CHERRY POINT   MOSUNNY   82  72  69 SW12      30.17S
BEAUFORT       FAIR      77  71  82 SW15      30.17S
JACKSONVILLE   PTSUNNY   81  71  71 W7        30.17R
WILMINGTON     FAIR      81  68  64 SW7       30.18S
$$





USA.gov is the U.S. government's official web portal to all federal, state and local government web resources and services.